"Pseudo-MPEC" for P10PLIT

Created 2019 Jul 12 21:07:11 UT using Find_Orb

Click here for an explanation of pseudo-MPECs

 
 Astrometry: 
     P10PLIT  C2019 07 10wQ9O-*0oHipJ8hXndGBL,A)7$+Astrometry/b:`9S5]Ep_5fcM.F51
     P10PLIT  C2019 07 10Au4+k5Nredacted;AI!3M`B6\)-r^EqT*,tn3]5.KuTa#r\LMIT4F51
     P10PLIT  C2019 07 10EDh(Mv1Aq?KXnsEQc.V^clickb=;4TAa#uOIs+Gn+25V,:h44+wvF51
     P10PLIT  C2019 07 10a5^Y*r3%3jUc9hereN'DOu)bd:HforX(Fp-wFexplanationH2*'F51
     P10PLIT ^C2019 07 11.59522023 14 35.178-17 43 03.09   ~7C07 22.42GVNEOCP568
     P10PLIT ^C2019 07 11.59640223 14 35.295-17 43 02.34   ~7C07 22.66GVNEOCP568
     P10PLIT ^C2019 07 11.59758423 14 35.412-17 43 01.67   ~7C07 22.63GVNEOCP568
     P10PLIT  C2019 07 12.39516323 15 59.77 -17 35 25.9    ~7CAM 22.3 GVNEOCPH01
     P10PLIT  C2019 07 12.39868123 16 00.10 -17 35 24.0    ~7CAM 22.4 GVNEOCPH01
     P10PLIT  C2019 07 12.40895323 16 01.12 -17 35 18.1    ~7CAM 22.6 GVNEOCPH01
     P10PLIT  C2019 07 12.41758223 16 01.95 -17 35 13.2    ~7CAM 22.2 GVNEOCPH01
     P10PLIT ^C2019 07 12.52667423 16 13.505-17 34 07.20   ~7CHb 22.86GVNEOCP568
     P10PLIT ^C2019 07 12.52785323 16 13.620-17 34 06.54   ~7CHb 22.75GVNEOCP568
     P10PLIT ^C2019 07 12.52913423 16 13.744-17 34 05.82   ~7CHb 22.89GVNEOCP568

Station data:
(568) Mauna Kea  (N19.826116 W155.472200)  US/Hawaii.
(F51) Pan-STARRS 1, Haleakala  (N20.707235 W156.255910)  US/Hawaii.
   Observers N. Primak, A. Schultz, S. Watters, J. Thiel, T. Goggia. Measurer
   PS1 Science Consortium. 1.8-m Ritchey-Chrétien + CCD.
(H01) Magdalena Ridge Observatory, Socorro  (N33.984833 W107.189333)  US/New
   Mexico.  Observers W. H. Ryan, E. V. Ryan. Measurer W. H. Ryan. 2.4-m
   f/8.9 reflector + CCD.

Orbital elements:  P10PLIT
   Perihelion 2019 Jul 10.448091 +/- 1.17 TT = 10:45:15 (JD 2458674.948091)
Epoch 2019 Jul 12.0 TT = JDT 2458676.5   Earth MOID: 0.3514   Ma: 0.0362
M   0.44872579 +/- 0.32             (J2000 ecliptic)          AutoNEOCP
n   0.28914443 +/- 0.0484           Peri.  288.01851 +/- 1.7
a   2.26495454 +/- 0.253            Node    16.30325 +/- 1.6
e   0.4012512 +/- 0.0569            Incl.    4.43558 +/- 0.19
P   3.41                   H 22.2   G  0.15   U 10.7  
q 1.35613865 +/- 0.0273    Q 3.17377042 +/- 0.579
From 14 observations 2019 July 10-12 (47.0 hr); mean residual 0".07
Residuals in arcseconds: 
190710 F51  .11-  .06-    190711 568  .01-  .06+    190712 H01  .08-  .03+    
190710 F51  .04-  .12+    190711 568  .01-  .05+    190712 568  .01-  .02+    
190710 F51  .04+  .08+    190712 H01  .11+  .03-    190712 568  .00   .02+    
190710 F51  .13+  .18-    190712 H01  .10-  .11-    190712 568  .00   .02+    
190711 568  .02-  .01-    190712 H01  .11+  .01+    

Ephemerides (geocentric):
Date (UTC) HH   RA              Dec         delta   r     elong  mag " sig PA
---- -- -- --  -------------   -----------  ------ ------ -----  --- ---- ---
2019 07 12 21  23 16 48.968   -17 30 37.39  .48162 1.3563 125.9 22.8 1.19 145
2019 07 12 22  23 16 53.248   -17 30 13.58  .48150 1.3563 125.9 22.8 1.21 143
2019 07 12 23  23 16 57.524   -17 29 49.79  .48138 1.3563 125.9 22.8 1.24 142
2019 07 13 00  23 17 01.794   -17 29 26.00  .48126 1.3563 126.0 22.8 1.26 141
2019 07 13 01  23 17 06.060   -17 29 02.21  .48114 1.3564 126.0 22.8 1.29 139
2019 07 13 02  23 17 10.320   -17 28 38.44  .48102 1.3564 126.0 22.8 1.32 138
2019 07 13 03  23 17 14.576   -17 28 14.67  .48090 1.3564 126.0 22.8 1.35 136
2019 07 13 04  23 17 18.827   -17 27 50.91  .48078 1.3564 126.0 22.8 1.38 135
2019 07 13 05  23 17 23.073   -17 27 27.16  .48066 1.3564 126.1 22.8 1.42 134
2019 07 13 06  23 17 27.314   -17 27 03.41  .48054 1.3564 126.1 22.8 1.45 132
2019 07 13 07  23 17 31.551   -17 26 39.68  .48042 1.3564 126.1 22.8 1.49 131
2019 07 13 08  23 17 35.782   -17 26 15.95  .48031 1.3564 126.1 22.8 1.52 130
2019 07 13 09  23 17 40.009   -17 25 52.22  .48019 1.3564 126.1 22.8 1.56 129
2019 07 13 10  23 17 44.231   -17 25 28.51  .48007 1.3564 126.2 22.8 1.60 127
2019 07 13 11  23 17 48.447   -17 25 04.80  .47995 1.3564 126.2 22.8 1.65 126
2019 07 13 12  23 17 52.659   -17 24 41.10  .47983 1.3564 126.2 22.8 1.69 125
2019 07 13 13  23 17 56.866   -17 24 17.41  .47971 1.3564 126.2 22.8 1.73 124
2019 07 13 14  23 18 01.069   -17 23 53.73  .47960 1.3565 126.3 22.8 1.78 123
2019 07 13 15  23 18 05.266   -17 23 30.05  .47948 1.3565 126.3 22.8 1.83 122
2019 07 13 16  23 18 09.458   -17 23 06.39  .47936 1.3565 126.3 22.8 1.88 121
2019 07 13 17  23 18 13.645   -17 22 42.73  .47924 1.3565 126.3 22.8 1.93 120
2019 07 13 18  23 18 17.828   -17 22 19.07  .47912 1.3565 126.3 22.8 1.98 119
2019 07 13 19  23 18 22.006   -17 21 55.43  .47901 1.3565 126.4 22.8 2.03 118
2019 07 13 20  23 18 26.178   -17 21 31.79  .47889 1.3565 126.4 22.8 2.09 118
2019 07 13 21  23 18 30.346   -17 21 08.17  .47877 1.3565 126.4 22.8 2.15 117
2019 07 13 22  23 18 34.509   -17 20 44.54  .47865 1.3565 126.4 22.8 2.20 116
2019 07 13 23  23 18 38.667   -17 20 20.93  .47854 1.3565 126.4 22.8 2.26 115
2019 07 14 00  23 18 42.820   -17 19 57.33  .47842 1.3565 126.5 22.8 2.32 114
2019 07 14 01  23 18 46.968   -17 19 33.73  .47830 1.3566 126.5 22.8 2.39 114
2019 07 14 02  23 18 51.111   -17 19 10.14  .47819 1.3566 126.5 22.8 2.45 113
2019 07 14 03  23 18 55.249   -17 18 46.56  .47807 1.3566 126.5 22.7 2.51 112
2019 07 14 04  23 18 59.382   -17 18 22.99  .47795 1.3566 126.5 22.7 2.58 112
2019 07 14 05  23 19 03.510   -17 17 59.42  .47784 1.3566 126.6 22.7 2.65 111
2019 07 14 06  23 19 07.634   -17 17 35.87  .47772 1.3566 126.6 22.7 2.71 111
2019 07 14 07  23 19 11.752   -17 17 12.32  .47761 1.3566 126.6 22.7 2.78 110
2019 07 14 08  23 19 15.865   -17 16 48.78  .47749 1.3566 126.6 22.7 2.86 109
2019 07 14 09  23 19 19.974   -17 16 25.24  .47737 1.3566 126.6 22.7 2.93 109
2019 07 14 10  23 19 24.077   -17 16 01.72  .47726 1.3566 126.7 22.7 3.00 108
2019 07 14 11  23 19 28.176   -17 15 38.20  .47714 1.3567 126.7 22.7 3.08 108
2019 07 14 12  23 19 32.269   -17 15 14.70  .47703 1.3567 126.7 22.7 3.15 107
2019 07 14 13  23 19 36.358   -17 14 51.20  .47691 1.3567 126.7 22.7 3.23 107
2019 07 14 14  23 19 40.441   -17 14 27.71  .47680 1.3567 126.8 22.7 3.31 106
2019 07 14 15  23 19 44.520   -17 14 04.22  .47668 1.3567 126.8 22.7 3.39 106
2019 07 14 16  23 19 48.593   -17 13 40.75  .47657 1.3567 126.8 22.7 3.47 105
2019 07 14 17  23 19 52.662   -17 13 17.28  .47645 1.3567 126.8 22.7 3.56 105
2019 07 14 18  23 19 56.725   -17 12 53.82  .47634 1.3567 126.8 22.7 3.64 105
2019 07 14 19  23 20 00.784   -17 12 30.37  .47622 1.3567 126.9 22.7 3.73 104
2019 07 14 20  23 20 04.838   -17 12 06.93  .47611 1.3568 126.9 22.7 3.81 104